Location: Long Geng
(2.6167°N, 114.1333°E)
Time: 06:18:16
(UTC+00:00)

SL-08 ROCKET BODY - Pass Details

Date: 14 May 2021
Orbit: 896 x 964 km, 82.9° (Epoch: 13 June)

Event Time Altitude Azimuth Distance (km) Brightness Sun altitude
Rises 12:00:45 0° 4° (N) 3,496 7.6 -22.9°
Reaches altitude 10° 12:03:14 10° 9° (N) 2,558 6.8 -23.4°
Maximum altitude 12:08:56 58° 87° (E) 1,042 4.3 -24.8°
Enters shadow 12:08:59 58° 90° (E) 1,042 4.3 -24.8°
